New Orleans NAS, LA

2:21 PM CDT on May 23, 2017 (GMT -0500)
New Orleans Naval Air Station

Weather History for KNBG - October, 2012

Change the Weather History Date:

Saturday, October 13, 2012

  Actual Average Record
Temperature  
Mean Temperature 76 °F -  
Max Temperature 82 °F 77 °F 88 °F (2014)
Min Temperature 69 °F 60 °F 48 °F (2000)
Cooling Degree Days 10    
Growing Degree Days 26 (Base 50)    
Moisture  
Dew Point 66 °F    
Average Humidity 70    
Maximum Humidity 82    
Minimum Humidity 59    
Precipitation  
Precipitation 0.00 in - - ()
Sea Level Pressure  
Sea Level Pressure 30.17 in    
Wind  
Wind Speed 2 mph (SE)    
Max Wind Speed 12 mph    
Max Gust Speed 17 mph    
Visibility 6 miles    
Events Fog    
Averages and records for this station are not official NWS values.
T = Trace of Precipitation, MM = Missing Value Source: NWS Daily Summary

Daily Weather History Graph

Daily Weather History Graph

Search for Another Location

Airport or City:

Trip Planner

Search our weather history database for the weather conditions in past years. The results will help you decide how hot, cold, wet, or windy it might be!

Date:

Astronomy

Oct. 13, 2012 Rise Set
Actual Time 7:00 AM CDT 6:31 PM CDT
Civil Twilight 6:36 AM CDT 6:55 PM CDT
Nautical Twilight 6:09 AM CDT 7:22 PM CDT
Astronomical Twilight 5:41 AM CDT 7:50 PM CDT
Moon 4:57 AM CDT (10/13) 5:10 PM CDT (10/13)
Length of Visible Light 12h 18m
Length of Day
11h 30m
Waning Crescent, 5% of the Moon is Illuminated
Oct 13
Waning Crescent
Oct 15
New
Oct 21
First Quarter
Oct 29
Full
Nov 6
Last Quarter

Hourly Weather History & Observations

Time (CDT) Temp. Heat Index Dew Point Humidity Pressure Visibility Wind Dir Wind Speed Gust Speed Precip Events Conditions
12:55 AM - - - N/A% 30.19 in 1.0 mi Calm Calm - N/A   Mist
1:46 AM - - - N/A% 30.18 in 1.2 mi Calm Calm - N/A   Partly Cloudy
1:53 AM - - - N/A% 30.18 in 0.5 mi Calm Calm - N/A Fog Fog
1:55 AM - - - N/A% 30.19 in 0.5 mi Calm Calm - N/A Fog Fog
1:59 AM - - - N/A% 30.18 in 2.0 mi Calm Calm - N/A   Partly Cloudy
2:12 AM - - - N/A% 30.18 in 1.2 mi Calm Calm - N/A   Partly Cloudy
2:30 AM - - - N/A% 30.18 in 4.0 mi Calm Calm - N/A   Haze
2:55 AM - - - N/A% 30.19 in 0.2 mi Calm Calm - N/A Fog Fog
3:55 AM - - - N/A% 30.19 in 0.5 mi Calm Calm - N/A Fog Fog
4:55 AM - - - N/A% 30.19 in 1.5 mi Calm Calm - N/A   Overcast
5:55 AM 69.8 °F - 61.0 °F 73% 30.20 in 3.0 mi Calm Calm - N/A   Haze
6:55 AM 69.3 °F - 60.1 °F 72% 30.20 in 1.5 mi Calm Calm - N/A   Haze
7:55 AM 70.3 °F - 59.0 °F 67% 30.22 in 3.0 mi Calm Calm - N/A   Haze
8:55 AM 74.8 °F - 62.1 °F 64% 30.22 in 10.0 mi SSE 3.5 mph - N/A   Partly Cloudy
9:55 AM 78.4 °F - 69.1 °F 73% 30.24 in 10.0 mi SE 8.1 mph - N/A   Scattered Clouds
10:55 AM 79.3 °F - 66.9 °F 66% 30.23 in 10.0 mi SE 11.5 mph 17.3 mph N/A   Scattered Clouds
11:55 AM 81.3 °F 83.5 °F 66.0 °F 60% 30.22 in 10.0 mi SSE 6.9 mph - N/A   Scattered Clouds
1:55 PM 82.4 °F 84.8 °F 66.9 °F 59% 30.16 in 10.0 mi ESE 5.8 mph - N/A   Scattered Clouds
2:55 PM - - - N/A% 30.14 in 10.0 mi ESE 6.9 mph - N/A   Mostly Cloudy
3:55 PM 82.0 °F 84.9 °F 68.0 °F 62% 30.13 in 10.0 mi SE 10.4 mph - N/A   Scattered Clouds
4:55 PM 81.3 °F 84.1 °F 68.0 °F 64% 30.12 in 10.0 mi ESE 10.4 mph - N/A   Scattered Clouds
5:55 PM 79.7 °F - 69.1 °F 70% 30.12 in 10.0 mi SE 8.1 mph - N/A   Mostly Cloudy
6:55 PM 77.7 °F - 68.0 °F 72% 30.12 in 10.0 mi SE 8.1 mph - N/A   Scattered Clouds
7:55 PM - - - N/A% 30.14 in 10.0 mi ESE 6.9 mph - N/A   Partly Cloudy
8:55 PM 75.9 °F - 70.0 °F 82% 30.14 in 10.0 mi ESE 6.9 mph - N/A   Scattered Clouds
9:55 PM 75.7 °F - 70.0 °F 82% 30.14 in 10.0 mi SE 5.8 mph - N/A   Clear
10:55 PM 76.1 °F - 70.0 °F 81% 30.14 in 10.0 mi SSE 5.8 mph - N/A   Scattered Clouds
11:55 PM - - - N/A% 30.12 in 10.0 mi SE 4.6 mph - N/A   Partly Cloudy